CAPE
0 0 0 0 0 0 0 0 0 138 147 307 373 594 533 389 417 885 1838 1364 805 65 41 1069 1956 2138 2212 2156 2028 1918 1788 1800 1929 2006 1819 1547 1318 864 899 1449 1942 1930 1157 876 554 396 287 138 0
0 0 0 0 0 9 0 0 0 346 614 478 464 434 490 451 292 1657 1907 1395 824 87 65 445 1775 1987 2102 2064 1989 1905 1901 1896 1919 1830 1601 1247 1102 899 1023 1581 2011 1701 1163 831 691 461 346 174 68
0 0 0 0 0 11 4 0 0 36 416 583 654 506 494 687 578 1708 1765 1307 803 126 35 684 1889 1880 1950 1937 1845 1824 1816 1792 1753 1634 1311 980 1029 1133 1450 1737 1912 1806 1309 1097 893 615 421 261 145
0 0 0 0 0 0 0 0 0 26 628 628 739 719 462 583 1384 1567 1814 1191 956 233 51 1229 1870 1817 1764 1764 1730 1719 1715 1679 1613 1431 1171 1012 1010 1380 1584 1703 1880 1856 1556 1288 1302 967 570 410 320
0 0 0 0 0 0 0 0 0 0 678 751 752 736 731 704 1328 1570 1717 1302 885 325 103 763 1802 1879 1794 1734 1694 1612 1606 1545 1486 1388 1199 1106 1260 1454 1648 1705 1616 1693 1672 1575 1353 1389 1111 695 440
0 0 0 0 0 0 0 0 0 0 290 772 865 714 604 754 1387 1763 1944 1577 768 311 199 309 1547 1869 1826 1765 1627 1527 1455 1416 1392 1356 1257 1140 1187 1363 1480 1520 1350 1364 1561 1700 1482 1342 1196 1007 830
0 0 0 0 0 0 0 0 0 0 5 501 796 700 788 1018 1703 1991 1991 1970 945 491 279 273 346 1088 1800 1809 1500 1432 1335 1320 1336 1354 1317 1119 1078 1231 1285 1396 1155 1060 1308 1560 1766 1402 1068 734 521
0 0 0 0 0 0 0 0 0 229 0 533 708 550 794 1037 2088 2520 2256 1552 1089 717 364 224 129 220 233 492 1710 1529 1457 1410 1295 1374 1373 1222 1056 869 813 1081 1105 890 990 1358 1624 1362 1135 843 637
0 0 0 0 0 0 0 0 0 9 326 190 564 1195 1385 1363 1910 2484 2547 2106 1166 778 515 352 202 94 86 116 600 1371 1228 1401 1359 1093 1333 734 70 147 285 264 775 747 733 983 1309 1555 1423 1131 693
0 0 0 0 0 0 0 0 0 14 660 508 918 1602 1355 1675 1642 2175 2226 2371 1363 973 805 559 446 307 159 143 378 319 339 395 318 231 332 179 166 258 142 349 398 387 561 752 1229 1500 1455 1144 1018
0 0 0 0 0 0 0 0 0 2 374 452 489 1163 1642 1574 1867 1965 1742 1785 1190 869 928 817 803 865 574 448 461 302 333 421 599 612 780 423 479 458 136 252 93 92 244 91 446 972 987 807 904
0 0 0 0 0 0 0 0 0 9 335 392 505 1007 1943 1606 2103 2287 1697 1271 897 816 990 984 1335 1598 1212 833 782 621 548 623 822 931 1280 1045 905 647 467 315 143 247 91 2 36 102 414 668 827
0 0 0 0 0 0 0 0 0 0 235 0 0 1115 1986 1805 1880 2157 1795 1575 1267 1043 991 1075 1274 1946 1927 1576 1192 1151 987 850 916 870 1164 979 972 863 725 531 354 138 98 104 20 1 56 307 556
0 0 0 0 0 0 0 0 0 0 0 0 0 268 1697 1688 2230 2208 1776 2008 1908 1465 1226 1158 1281 1804 2006 2083 1769 1500 1556 1199 1254 1130 1135 1220 1047 1073 865 809 634 343 173 318 300 434 417 255 34
0 0 0 0 0 0 0 0 0 0 0 0 0 0 224 1860 2060 1995 2044 2222 2177 1824 1571 1527 1506 1535 1937 1845 1896 1892 1487 1568 1575 1470 1425 1390 1412 1297 1230 846 717 515 438 836 976 1127 1132 890 426
0 0 0 0 0 0 0 0 0 0 0 0 0 0 0 166 1890 1786 1260 1791 2524 2412 2193 2109 1560 1438 1926 1659 1736 1742 1593 1683 1655 1669 1622 1652 1568 1489 1649 978 888 637 639 875 1092 1424 1420 1148 856
0 0 0 0 0 0 0 0 0 0 0 0 0 0 0 0 801 1858 2044 1715 1701 2660 2982 2824 2617 2130 1970 2008 1750 1885 1784 1905 1629 1624 1600 1811 1714 1541 1720 1165 1054 1034 606 857 955 1280 1619 1280 1294
0 0 0 0 0 0 0 0 0 0 0 0 0 0 0 0 0 0 0 92 1661 2084 2098 2654 2784 2885 2449 2298 2085 1701 1636 1747 1526 1560 1540 1767 1897 1664 1802 1292 1388 1315 706 1252 1314 1461 1386 1500 1355
0 0 0 0 0 0 0 0 0 0 0 0 0 0 0 0 0 0 21 9 0 74 1172 2136 2866 2992 2931 2608 2282 1986 1654 1480 1419 1565 1699 1788 1834 1585 1737 1501 1816 1736 1344 1448 1367 1694 1595 1653 1359
0 0 0 0 0 0 0 0 0 0 0 0 0 0 0 0 3 64 158 224 139 14 69 1182 2374 3060 3174 2875 2687 2267 1900 1463 1442 1848 2205 2053 1972 1905 1856 2018 1917 1910 1413 1829 1916 1709 1334 1093 1371
0 0 0 0 0 0 0 0 0 0 0 0 0 0 0 0 0 59 173 326 374 387 233 49 914 2240 2922 2750 2696 2604 2178 2027 1851 2099 2393 2456 2244 2242 2213 2188 1872 1725 1788 1356 1932 1818 1306 1180 1132
0 0 0 0 0 0 0 0 0 0 0 0 0 0 0 0 0 0 36 82 233 446 572 457 383 364 2383 2869 3126 3904 2802 2471 2385 2645 2522 2681 2621 2585 2345 2281 2139 2163 1663 1675 1342 1539 1674 1586 1251
0 1 0 0 0 7 1 0 99 2 0 0 0 0 0 0 0 0 0 0 1 68 483 578 457 123 453 2540 2894 3037 3400 2778 2286 2185 3914 3690 3172 2587 2329 2430 2385 2215 1842 1273 1571 1832 2126 1572 593
0 0 0 0 2 46 11 18 79 28 19 0 0 0 0 0 0 0 0 0 0 0 32 439 1068 909 588 1183 2454 2928 3680 3440 2810 3066 2862 2945 2485 2384 2575 2312 2350 2032 1620 1345 2231 2245 2118 1418 810
0 10 43 58 59 51 66 92 108 34 18 0 0 0 0 0 0 0 0 0 0 0 16 70 718 1251 1466 1353 1680 2135 2618 3133 3697 3945 3250 3099 1799 1391 2573 2589 2352 1912 1791 1575 2386 2394 1599 1700 1298
51 46 83 104 96 88 25 70 157 7 0 0 0 0 0 0 0 0 0 0 0 0 3 68 264 549 1153 1564 1699 1852 2153 2512 3083 3807 3414 2759 1920 1429 2817 2643 2396 1972 1851 1862 2599 2330 1839 1934 1737
19 62 75 113 99 85 67 22 0 0 0 0 0 0 0 0 0 0 0 0 0 0 0 12 101 179 373 976 1554 1948 2547 2525 2718 3944 3651 3502 3718 1329 1823 2423 2487 2025 1820 2078 2876 2037 2043 1620 1929
26 19 116 113 121 109 111 128 133 3 0 0 0 0 0 0 0 0 0 0 0 0 0 17 39 16 11 104 423 849 1327 2012 2413 2789 3103 3152 2976 2281 1777 2414 2487 2176 1752 1985 2854 2263 1962 2072 1712
1 42 56 64 81 140 135 143 87 67 0 0 0 0 0 0 0 0 0 0 0 0 0 0 6 13 29 15 49 333 602 917 1440 1945 2491 2593 2757 2783 2235 2292 2439 2267 1893 2175 3298 2881 1779 2016 2085
0 1 13 7 129 141 114 108 0 2 0 0 0 0 0 0 0 0 0 0 0 0 0 0 0 0 5 21 53 50 195 321 407 647 1170 1494 2486 2606 2659 2280 2285 2258 2103 2430 2208 1983 1611 1848 2008
CIN
-0 -0 -0 -0 -0 -0 -0 -0 -0 -13 -48 -94 -120 -57 -47 -76 -17 -7 -90 -109 -122 -237 -255 -183 -73 -79 -52 -69 -81 -64 -52 -51 -32 -21 -27 -40 -64 -110 -93 -5 -0 -0 -0 -2 -16 -24 -28 -57 -0
-0 -0 -0 -0 -0 -0 -0 -0 -0 -10 -45 -114 -136 -136 -75 -38 -100 -49 -69 -108 -106 -234 -216 -229 -54 -66 -93 -79 -79 -76 -58 -59 -47 -43 -58 -78 -79 -100 -84 -8 -0 -0 -0 -2 -4 -13 -24 -58 -89
-0 -0 -0 -0 -0 -0 -0 -0 -0 -23 -79 -81 -60 -121 -111 -72 -136 -41 -37 -80 -115 -242 -334 -190 -78 -71 -92 -107 -105 -98 -81 -72 -60 -52 -67 -98 -91 -56 -13 -0 -0 -0 -0 -0 -0 -3 -5 -18 -31
-0 -0 -0 -0 -0 -0 -0 -0 -0 -10 -76 -93 -46 -37 -147 -198 -87 -73 -68 -75 -113 -168 -280 -153 -69 -52 -74 -103 -107 -102 -97 -79 -68 -79 -86 -91 -81 -40 -14 -0 -0 -0 -0 -0 -0 -0 -8 -9 -6
-0 -0 -0 -0 -0 -0 -0 -0 -0 -0 -21 -40 -62 -29 -88 -210 -152 -97 -71 -78 -87 -143 -241 -185 -65 -54 -68 -87 -110 -113 -104 -106 -109 -104 -100 -107 -65 -26 -13 -0 -0 -0 -0 -0 -0 -0 -0 -2 -7
-0 -0 -0 -0 -0 -0 -0 -0 -0 -0 -31 -28 -39 -44 -90 -203 -116 -77 -58 -59 -99 -174 -213 -245 -109 -67 -53 -62 -103 -125 -124 -123 -109 -101 -95 -93 -69 -41 -18 -11 -4 -0 -1 -1 -0 -0 -0 -0 -0
-0 -0 -0 -0 -0 -0 -0 -0 -0 -0 -6 -26 -33 -9 -66 -113 -102 -76 -58 -46 -102 -167 -205 -260 -249 -144 -59 -59 -110 -113 -124 -135 -125 -108 -87 -95 -84 -51 -28 -7 -17 -14 -0 -0 -0 -0 -1 -4 -11
-0 -0 -0 -0 -0 -0 -0 -0 -0 -57 -0 -69 -48 -3 -10 -85 -116 -67 -46 -72 -84 -134 -191 -235 -285 -251 -240 -183 -74 -98 -96 -118 -117 -98 -91 -84 -74 -78 -69 -33 -19 -26 -12 -2 -0 -0 -0 -2 -6
-0 -0 -0 -0 -0 -0 -0 -0 -0 -44 -53 -112 -54 -22 -58 -97 -110 -42 -27 -36 -84 -125 -158 -182 -210 -248 -247 -252 -177 -100 -113 -89 -89 -112 -76 -143 -154 -157 -137 -124 -60 -42 -37 -5 -0 -0 -0 -0 -6
-0 -0 -0 -0 -0 -0 -0 -0 -0 -18 -33 -45 -26 -57 -103 -102 -88 -37 -38 -30 -69 -103 -113 -136 -148 -168 -201 -209 -190 -210 -183 -162 -162 -169 -176 -134 -107 -93 -90 -89 -111 -94 -54 -37 -0 -1 -2 -5 -1
-0 -0 -0 -0 -0 -0 -0 -0 -0 -18 -12 -5 -10 -5 -70 -76 -72 -41 -36 -33 -52 -93 -115 -119 -133 -156 -126 -134 -151 -175 -148 -137 -114 -109 -89 -102 -74 -80 -102 -58 -94 -87 -101 -77 -41 -1 -0 -0 -0
-0 -0 -0 -0 -0 -0 -0 -0 -0 -16 -0 -8 -28 -20 -43 -54 -39 -17 -20 -40 -51 -85 -113 -109 -99 -89 -101 -99 -113 -115 -114 -107 -88 -82 -63 -57 -58 -58 -45 -27 -29 -40 -36 -6 -53 -20 -0 -0 -0
-0 -0 -0 -0 -0 -0 -0 -0 -0 -0 -56 -0 -0 -29 -27 -43 -40 -23 -26 -26 -43 -73 -91 -106 -116 -83 -71 -85 -89 -88 -101 -105 -87 -95 -80 -69 -53 -51 -38 -34 -30 -32 -24 -23 -60 -2 -62 -14 -0
-0 -0 -0 -0 -0 -0 -0 -0 -0 -0 -0 -0 -0 -60 -11 -24 -34 -37 -48 -42 -51 -68 -93 -108 -140 -128 -99 -79 -82 -89 -86 -77 -81 -77 -79 -93 -63 -42 -30 -30 -27 -28 -33 -5 -6 -2 -14 -24 -34
-0 -0 -0 -0 -0 -0 -0 -0 -0 -0 -0 -0 -0 -0 -40 -15 -26 -37 -44 -61 -61 -66 -88 -125 -146 -153 -137 -129 -95 -74 -80 -67 -63 -63 -84 -83 -65 -49 -35 -19 -14 -19 -15 -2 -0 -0 -0 -0 -6
-0 -0 -0 -0 -0 -0 -0 -0 -0 -0 -0 -0 -0 -0 -0 -79 -8 -28 -45 -52 -41 -57 -84 -102 -109 -125 -152 -153 -116 -88 -77 -71 -57 -61 -65 -70 -56 -41 -24 -22 -15 -19 -18 -0 -0 -0 -0 -0 -0
-0 -0 -0 -0 -0 -0 -0 -0 -0 -0 -0 -0 -0 -0 -0 -0 -19 -17 -29 -40 -82 -55 -55 -93 -85 -80 -104 -122 -114 -91 -80 -84 -70 -62 -60 -67 -57 -53 -33 -26 -15 -30 -21 -1 -0 -0 -0 -0 -0
-0 -0 -0 -0 -0 -0 -0 -0 -0 -0 -0 -0 -0 -0 -0 -0 -0 -0 -0 -47 -96 -88 -106 -101 -103 -93 -101 -91 -100 -85 -71 -80 -62 -57 -58 -69 -52 -56 -40 -25 -22 -24 -12 -0 -0 -0 -0 -0 -0
-0 -0 -0 -0 -0 -0 -0 -0 -0 -0 -0 -0 -0 -0 -0 -0 -0 -0 -412 -482 -0 -289 -192 -132 -120 -105 -97 -100 -91 -80 -77 -64 -55 -57 -69 -78 -62 -58 -47 -21 -4 -8 -0 -0 -0 -0 -0 -0 -0
-0 -0 -0 -0 -0 -0 -0 -0 -0 -0 -0 -0 -0 -0 -0 -0 -110 -283 -245 -293 -327 -268 -229 -168 -153 -106 -107 -94 -87 -61 -53 -44 -43 -44 -55 -85 -70 -54 -50 -18 -0 -0 -0 -0 -0 -0 -0 -0 -0
-0 -0 -0 -0 -0 -0 -0 -0 -0 -0 -0 -0 -0 -0 -0 -0 -19 -295 -275 -284 -288 -324 -374 -389 -273 -150 -121 -128 -88 -95 -89 -87 -50 -36 -43 -62 -66 -50 -45 -21 -6 -1 -1 -0 -0 -0 -0 -0 -0
-0 -0 -0 -0 -0 -0 -0 -0 -0 -0 -0 -0 -0 -0 -0 -0 -0 -0 -318 -344 -302 -282 -326 -379 -436 -440 -149 -108 -75 -42 -66 -59 -47 -29 -32 -31 -54 -37 -42 -22 -15 -3 -0 -0 -0 -0 -0 -0 -0
-0 -0 -0 -0 -0 -0 -0 -0 -2 -33 -0 -0 -0 -0 -0 -0 -0 -0 -0 -0 -68 -330 -290 -330 -440 -512 -435 -120 -98 -54 -46 -40 -29 -15 -0 -5 -27 -45 -42 -19 -13 -9 -10 -0 -0 -0 -0 -0 -0
-0 -0 -0 -0 -0 -0 -0 -0 -0 -20 -16 -0 -0 -0 -0 -0 -0 -0 -0 -0 -0 -0 -338 -300 -272 -334 -412 -289 -94 -54 -14 -18 -0 -0 -0 -5 -25 -43 -41 -30 -17 -20 -12 -2 -0 -0 -0 -0 -0
-0 -0 -0 -0 -0 -0 -0 -0 -0 -69 -66 -0 -0 -0 -0 -0 -0 -0 -0 -0 -0 -0 -410 -365 -278 -199 -180 -205 -137 -76 -36 -5 -0 -0 -0 -0 -1 -28 -27 -34 -24 -26 -24 -9 -0 -0 -0 -0 -0
-0 -0 -0 -0 -0 -0 -10 -0 -1 -102 -0 -0 -0 -0 -0 -0 -0 -0 -0 -0 -0 -0 -315 -351 -330 -275 -154 -82 -61 -46 -43 -18 -0 -0 -0 -0 -0 -17 -1 -47 -29 -36 -32 -16 -0 -0 -0 -0 -0
-0 -0 -0 -0 -0 -0 -2 -47 -8 -0 -0 -0 -0 -0 -0 -0 -0 -0 -0 -0 -0 -0 -0 -345 -328 -309 -264 -114 -35 -2 -1 -1 -0 -0 -0 -0 -0 -2 -19 -48 -34 -40 -37 -17 -0 -0 -0 -0 -0
-17 -8 -0 -0 -0 -0 -0 -1 -0 -87 -0 -0 -0 -0 -0 -0 -0 -0 -0 -0 -0 -0 -0 -308 -294 -315 -328 -296 -213 -115 -27 -5 -0 -0 -0 -0 -0 -18 -4 -26 -29 -36 -34 -30 -0 -1 -0 -0 -0
-0 -0 -0 -8 -0 -0 -0 -0 -37 -12 -0 -0 -0 -0 -0 -0 -0 -0 -0 -0 -0 -0 -0 -0 -278 -274 -270 -322 -303 -216 -148 -108 -25 -13 -0 -0 -0 -0 -23 -21 -24 -21 -33 -23 -0 -0 -3 -2 -0
-0 -0 -0 -0 -0 -0 -0 -1 -0 -36 -0 -0 -0 -0 -0 -0 -0 -0 -0 -0 -0 -0 -0 -0 -0 -0 -0 -276 -261 -284 -220 -193 -210 -173 -71 -69 -0 -2 -3 -6 -18 -8 -12 -10 -18 -24 -9 -8 -0
Wind_Speed
8 8 5 6 9 8 4 6 2 4 5 3 1 1 4 5 7 6 7 9 18 18 18 17 14 16 16 18 19 17 16 16 15 15 14 13 13 13 13 12 11 12 14 14 14 14 14 13 13
3 4 6 5 10 9 9 3 4 5 6 4 4 5 1 3 2 6 12 14 18 18 17 17 11 15 17 17 18 18 16 16 15 14 14 13 12 12 13 12 11 12 13 13 13 12 12 12 12
6 6 7 6 8 9 7 4 4 2 3 5 3 3 3 4 2 7 14 16 17 16 17 16 14 13 16 18 18 18 17 16 15 14 13 12 12 11 10 11 11 12 12 12 12 11 10 10 9
6 6 6 10 11 5 4 4 5 3 3 4 3 3 4 4 6 5 16 17 17 16 16 17 13 12 14 17 17 17 16 15 14 14 13 12 12 12 10 10 9 10 11 11 11 11 10 9 9
7 5 8 12 8 2 3 4 5 7 2 6 7 5 2 4 6 11 14 16 17 16 15 18 12 12 13 15 17 16 16 15 15 14 13 13 12 10 11 9 9 9 9 11 10 11 10 9 8
8 5 8 11 12 5 3 5 9 9 7 5 8 4 5 9 9 11 13 15 15 16 16 17 14 13 12 12 14 15 15 15 13 13 12 12 11 10 10 10 9 8 7 9 11 9 8 8 7
13 8 10 7 10 7 2 5 4 5 8 8 3 4 6 11 10 11 12 14 15 16 15 15 16 14 12 11 13 12 13 13 13 12 11 10 10 9 8 8 8 8 7 6 9 10 9 8 9
8 8 7 10 9 6 2 3 3 6 5 7 3 1 8 11 13 13 14 14 15 15 15 15 15 16 15 14 11 12 12 12 11 11 11 9 8 7 7 6 7 7 7 6 7 8 8 8 8
5 8 10 12 8 6 2 3 1 1 5 9 4 1 5 15 15 15 15 15 14 13 14 14 15 15 15 15 13 10 11 10 9 10 8 9 9 10 11 7 11 7 6 6 7 9 8 7 7
10 10 8 3 1 3 5 4 5 6 7 7 9 5 7 15 16 16 16 15 17 16 15 14 14 13 13 10 13 12 12 11 10 10 11 9 6 7 4 8 7 6 6 5 6 7 9 10 8
8 10 4 6 4 7 7 7 3 6 9 7 10 9 10 15 15 15 16 17 18 16 13 15 13 12 13 11 9 8 7 8 8 10 9 9 6 6 7 6 7 8 10 8 9 9 9 12 6
9 6 6 2 4 6 7 7 6 6 2 3 1 1 11 15 16 15 15 16 16 17 18 15 15 13 13 9 9 9 8 9 8 9 11 7 6 6 5 5 5 5 6 5 6 5 6 5 7
11 5 6 7 7 7 9 9 5 9 5 1 1 5 10 13 13 12 10 12 14 15 16 16 14 14 12 12 10 9 9 8 9 9 11 9 8 6 7 5 5 5 5 5 6 6 5 7 8
5 4 6 7 10 6 9 8 5 9 7 5 2 7 8 12 15 11 11 12 13 13 15 15 15 13 14 12 11 9 9 9 9 8 9 12 8 7 7 6 6 6 5 6 6 6 5 7 7
5 10 11 12 13 10 8 11 10 8 4 10 7 7 7 11 15 14 12 13 13 12 14 15 15 14 14 14 12 10 9 9 9 8 9 10 10 8 7 6 6 6 6 7 6 5 6 6 6
10 7 12 13 12 8 10 15 15 10 9 12 11 9 8 12 15 12 11 11 11 12 12 12 12 15 15 13 11 9 9 9 8 8 8 11 10 9 9 7 6 6 6 7 7 7 7 6 6
11 12 9 8 10 6 14 13 8 5 7 12 11 12 10 5 7 4 8 9 9 10 11 13 13 14 14 12 10 11 10 9 8 8 8 10 11 11 9 8 6 7 7 7 7 7 7 7 7
6 12 8 11 13 10 14 13 7 1 5 4 4 8 4 2 5 3 5 7 8 9 10 11 12 14 12 10 10 9 10 10 9 9 9 11 10 11 10 8 7 8 8 7 7 7 6 8 7
9 7 8 7 8 9 12 12 8 3 5 6 6 7 6 6 7 6 7 5 4 8 10 12 14 13 12 11 11 11 12 11 11 9 11 11 10 12 11 8 8 9 9 8 6 8 9 6 8
9 11 12 10 8 12 12 10 6 6 7 7 8 9 9 9 11 13 12 11 7 4 7 10 13 14 14 11 10 11 10 11 10 10 10 12 12 12 11 10 8 9 8 9 8 8 6 8 6
13 12 9 11 10 14 10 12 11 8 9 9 9 9 11 11 12 13 15 15 12 10 7 6 10 13 14 15 10 9 9 9 10 11 10 11 13 12 12 11 9 8 8 8 10 10 9 7 7
14 12 11 8 12 14 18 12 20 14 9 7 8 8 9 10 11 12 13 15 15 13 11 10 8 11 13 13 13 14 13 13 12 11 10 10 14 13 13 12 11 10 8 8 8 8 9 8 7
14 5 11 10 12 15 14 13 13 16 14 9 8 8 8 9 10 11 12 13 13 15 14 12 11 7 11 12 15 12 15 13 11 11 10 11 12 14 14 12 11 10 9 9 9 9 10 8 8
6 8 11 11 13 15 18 15 14 19 16 11 8 7 8 8 9 10 11 11 13 15 16 15 15 10 7 10 14 16 16 14 12 11 10 10 10 11 13 12 11 10 10 10 10 9 10 9 7
12 14 12 15 15 15 18 19 7 10 11 10 8 7 8 8 11 12 14 13 13 16 17 15 17 15 11 7 11 14 17 17 15 12 11 11 11 11 12 13 12 11 12 11 10 10 10 10 9
19 20 15 21 15 15 8 13 8 11 10 8 7 7 7 8 10 11 13 13 14 14 15 15 16 16 16 13 9 10 13 11 13 13 12 11 11 11 11 13 13 13 14 13 12 10 10 10 10
18 13 14 19 19 11 10 4 7 11 11 8 7 5 6 7 9 10 11 12 12 13 12 13 13 13 14 15 12 8 7 10 13 11 11 11 10 10 12 14 14 14 15 15 14 11 11 10 10
11 6 9 11 20 19 14 16 9 19 15 10 6 4 5 6 8 9 10 11 11 11 10 12 12 11 12 12 12 12 10 9 10 11 11 10 11 12 12 14 15 15 15 15 15 12 13 12 10
12 8 6 9 7 8 14 9 10 16 14 10 5 3 4 6 8 8 9 10 11 11 12 11 11 12 10 11 11 11 11 12 11 11 10 12 12 12 14 14 15 16 16 16 15 14 15 16 14
17 19 14 8 9 9 10 5 6 11 10 4 2 1 4 5 7 7 7 9 11 12 12 11 11 12 12 11 8 9 10 10 10 11 10 12 11 13 15 15 15 16 17 16 17 18 15 18 17
Wind_Direction
210 221 249 242 244 234 122 104 331 142 174 88 226 211 348 13 349 22 123 163 144 146 150 159 153 145 140 137 136 134 134 129 128 127 125 125 125 124 121 121 124 121 122 121 118 113 108 103 98
199 201 229 277 257 213 118 107 70 53 59 140 146 201 229 99 20 92 151 156 155 144 148 155 153 148 143 139 135 134 135 135 134 134 133 132 128 127 128 128 128 129 130 128 123 119 114 110 105
226 245 262 255 255 249 122 105 30 42 199 214 190 251 4 65 80 128 118 150 150 149 153 143 160 156 146 141 140 139 139 137 135 132 131 131 129 129 128 130 135 140 139 137 131 129 126 120 115
193 194 223 248 222 236 319 53 357 250 150 215 247 176 126 51 126 89 143 153 150 153 153 134 151 153 150 148 143 141 139 136 136 136 138 137 137 137 136 137 141 145 145 144 146 145 141 137 134
214 248 231 236 215 276 263 321 319 275 139 169 196 94 73 136 116 139 146 159 164 153 155 153 154 159 159 151 144 143 143 143 146 145 146 144 145 143 139 142 144 147 155 152 147 145 150 151 149
209 275 230 222 204 194 276 314 294 264 204 125 192 244 71 134 156 148 152 163 162 155 149 149 157 165 162 156 150 147 148 149 148 147 149 147 147 146 146 142 143 144 152 158 156 156 151 151 158
260 228 252 254 182 202 338 328 251 273 220 187 65 250 92 156 141 157 158 163 160 160 161 158 167 166 162 160 152 154 155 151 154 152 150 151 152 151 150 144 143 148 158 167 157 160 161 159 152
262 265 219 216 183 161 54 290 300 248 225 85 235 299 136 154 156 159 164 166 166 167 162 163 172 173 177 169 164 161 165 161 155 155 156 156 145 147 155 147 154 159 158 169 166 174 170 166 162
251 241 217 189 197 130 122 309 106 319 225 214 158 1 80 143 161 165 163 168 170 172 167 171 175 175 184 172 168 168 171 158 157 163 158 158 189 176 159 105 136 162 165 177 186 189 179 177 176
231 244 224 49 46 247 300 295 326 238 178 183 187 121 135 154 173 170 172 171 174 175 176 178 185 176 189 175 165 190 179 187 190 187 173 207 198 181 198 135 153 174 182 182 195 199 178 203 191
192 252 79 197 259 301 298 270 319 251 193 187 204 145 161 169 181 185 181 177 178 177 180 184 187 178 193 189 177 189 188 192 194 195 189 210 182 181 208 175 184 193 189 198 195 184 214 209 260
231 237 236 230 273 281 286 328 245 248 61 83 223 257 172 182 187 196 189 178 180 176 184 190 180 187 205 194 191 192 198 191 198 195 192 198 208 190 220 216 204 201 182 212 229 216 240 268 223
234 218 234 237 256 270 289 263 283 222 177 155 69 174 183 185 192 200 194 191 186 184 186 190 188 192 202 212 196 209 206 197 201 193 193 204 210 200 204 208 232 221 200 201 214 240 227 214 240
159 229 242 243 237 225 258 237 235 213 182 185 224 203 186 191 191 191 205 203 199 194 192 194 194 193 203 211 221 205 205 198 209 204 202 208 212 197 209 204 220 220 223 218 220 212 226 230 242
215 245 217 226 228 230 236 229 221 230 221 232 214 208 225 195 196 207 203 210 204 200 200 197 195 196 206 205 215 217 209 215 206 210 204 209 212 200 233 219 222 216 216 234 220 221 224 251 234
238 237 247 201 204 199 227 237 192 221 223 233 235 233 218 212 221 215 220 219 211 214 204 205 202 198 203 211 212 217 214 219 210 209 199 206 208 220 206 221 221 217 225 222 235 225 244 238 243
207 252 215 158 208 176 212 234 206 174 233 248 258 244 244 280 188 266 258 234 228 222 218 215 216 222 207 212 219 217 216 221 211 211 204 192 209 208 224 222 220 215 223 229 236 235 236 235 247
236 232 220 232 172 213 195 229 143 258 237 227 251 236 227 267 52 13 331 296 264 238 230 227 219 219 216 215 218 223 220 216 217 210 210 199 206 207 207 220 222 216 222 222 227 244 231 252 250
271 265 251 225 165 231 209 207 117 97 123 119 116 118 104 64 48 39 31 15 295 243 229 221 213 214 210 207 209 214 221 215 212 214 211 204 212 204 204 219 198 219 231 237 232 233 224 215 243
235 236 241 236 198 224 183 183 135 115 93 92 101 85 76 64 46 31 33 34 27 328 280 238 229 215 210 214 219 226 225 227 220 206 204 204 203 203 203 216 205 206 222 224 225 218 214 232 209
225 245 238 262 178 217 211 165 163 133 120 105 86 81 70 58 51 40 35 28 18 15 349 288 269 235 224 228 215 218 235 233 217 215 202 202 202 199 204 202 220 199 232 222 215 212 224 220 221
245 210 244 239 217 210 209 224 183 163 146 127 111 85 75 68 63 50 38 33 26 20 11 350 303 263 237 220 226 214 215 217 218 214 203 196 199 196 194 199 204 212 217 229 206 223 223 239 224
247 222 236 235 235 250 195 248 168 174 165 142 107 81 62 53 51 51 46 39 26 23 22 18 357 309 265 239 232 224 226 228 236 221 191 210 187 194 191 197 202 209 220 210 233 213 210 199 244
219 221 233 244 247 230 241 213 206 187 165 144 118 84 60 45 43 41 36 41 33 24 23 19 12 3 319 261 240 240 250 232 246 215 206 199 187 191 192 194 200 202 209 211 207 202 204 231 218
229 235 234 221 224 236 232 225 220 87 120 136 128 97 67 44 36 26 24 23 25 23 19 17 15 12 0 309 265 251 247 249 243 242 214 220 200 197 185 195 196 195 203 204 204 197 198 206 212
222 230 243 250 243 241 180 226 130 121 115 131 124 90 64 44 34 25 19 11 13 17 18 16 17 14 4 348 320 279 257 244 239 236 243 222 221 203 178 196 198 202 195 201 201 196 210 201 213
241 242 263 274 270 254 202 126 146 158 156 158 128 103 65 37 30 19 17 10 8 6 16 11 11 12 11 4 355 335 296 265 266 263 232 234 242 208 192 195 199 202 198 197 193 210 199 203 210
276 350 221 226 252 249 257 231 224 180 173 163 154 103 59 26 13 14 5 9 357 2 4 9 2 11 10 6 6 3 357 325 275 261 252 247 242 235 195 199 205 200 203 198 194 199 198 204 203
325 258 268 300 263 274 259 228 338 164 163 167 150 94 47 11 1 2 1 0 352 352 360 4 359 354 5 6 7 9 8 2 352 331 269 243 242 239 224 205 208 208 206 202 197 207 200 204 206
306 296 308 292 251 267 286 306 104 120 132 157 153 87 22 351 353 357 358 351 350 350 350 351 351 352 359 353 356 13 11 13 9 1 344 339 271 235 235 225 211 216 213 206 208 212 206 202 205